Regional Weather Roundup
Issued by NWS Cleveland, OH

Home | Current Version | Previous Version | Graphics & Text | Print | Product List | Glossary On
Versions: 1 2 3 4 5 6 7 8 9 10 11 12 13 14 15 16 17 18 19 20 21 22 23 24 25 26 27 28 29 30 31 32 33 34 35 36 37 38 39 40 41 42 43 44 45 46 47 48 49 50
000
ASUS41 KCLE 241200
RWRCLE
OHIO REGIONAL WEATHER ROUNDUP
NATIONAL WEATHER SERVICE WILMINGTON, OH
700 AM EST FRI FEB 24 2017

NOTE: "FAIR" INDICATES FEW OR NO CLOUDS BELOW 12,000 FEET WITH NO
SIGNIFICANT WEATHER AND/OR OBSTRUCTIONS TO VISIBILITY.

OHZ001>008-015>018-024>027-034-035-043-044-241300-
   NORTHWEST OHIO

CITY           SKY/WX    TMP DP  RH WIND       PRES   REMARKS
DEFIANCE       FAIR      41  40  96 E7        29.62F FOG
FINDLAY        FAIR      57  51  80 SE13      29.64F
TOLEDO EXPRESS FOG       41  41 100 E7        29.64F VSB 1/4
TOLEDO EXEC    FOG       41  41 100 NE3       29.66F VSB 1/2
LIMA           FAIR      55  53  93 S12       29.65S
$$

OHZ009>014-019>023-028>033-038-089-241300-
   NORTHEAST OHIO

CITY           SKY/WX    TMP DP  RH WIND       PRES   REMARKS
CLE-HOPKINS    MOCLDY    61  52  72 S16       29.71F
CLE-LAKEFRONT  CLOUDY    61  53  75 S15       29.67F
CUY CO. ARPT   MOCLDY    61  55  82 S12       29.71
LORAIN-ELYRIA  FAIR      57  51  80 S13       29.69F
ASHTABULA      MOCLDY    56  54  93 S9        29.73F
AKRON-CANTON   MOCLDY    58  52  80 S10       29.75S
WOOSTER        NOT AVBL
MANSFIELD      CLOUDY    58  54  86 S13       29.72F
YOUNGSTOWN     MOCLDY    57  52  83 S9        29.76F
$$

OHZ042-051>053-060>062-070>072-077>081-241300-
  SOUTHWEST OHIO

CITY           SKY/WX    TMP DP  RH WIND       PRES   REMARKS
CINC-COVINGTON MOCLDY    59  53  80 S13       29.70S
CINC-LUNKEN    MOCLDY    60  54  80 S13       29.71F
HAMILTON       MOCLDY    61  54  77 S6        29.70S
DAYTON         NOT AVBL
WRIGHT-PAT AFB FAIR      60  55  85 S14       29.69S
DAYTON GENERAL MOCLDY    60  53  77 S15       29.69F
WILMINGTON     FAIR      58  52  80 S12       29.71F
$$

OHZ036-037-039>041-045>050-054>059-063>069-073>076-082>088-241300-
  CENTRAL AND SOUTHEAST OHIO

CITY           SKY/WX    TMP DP  RH WIND       PRES   REMARKS
COLUMBUS       FAIR      62  53  72 S13G18    29.72F
OSU AIRPORT    FAIR      58  54  86 S10       29.71F
BOLTON FIELD   NOT AVBL
RICKENBACK AFB NOT AVBL
NEWARK         FAIR      59  52  77 S8        29.73F
MARION         FAIR      56  52  86 S9        29.70F
LANCASTER      FAIR      63  52  67 S9        29.75F
ZANESVILLE     MOCLDY    57  52  83 S8        29.77F
NEW PHILLY     CLOUDY    55  53  93 SE7       29.77F
$$



USA.gov is the U.S. government's official web portal to all federal, state and local government web resources and services.